| time (UTC) | temp F | wind direction | speed MPH | gust MPH | rain 1hr in | rain 24hr in | rain mn in | humidity % | barometer mb |
| 20260507181105 | 64 | 174 | 4.0 | 8.0 | 0.00 | 0.04 | 0.00 | 44 | 1011.3 |
| 20260507180104 | 64 | 176 | 3.0 | 8.0 | 0.00 | 0.04 | 0.00 | 44 | 1011.5 |
| 20260507175604 | 64 | 186 | 5.0 | 7.0 | 0.00 | 0.05 | 0.00 | 44 | 1011.5 |
| 20260507175105 | 65 | 175 | 4.0 | 8.0 | 0.00 | 0.06 | 0.00 | 44 | 1011.5 |
| 20260507174604 | 65 | 185 | 4.0 | 8.0 | 0.00 | 0.06 | 0.00 | 44 | 1011.5 |
| 20260507174104 | 65 | 194 | 4.0 | 7.0 | 0.00 | 0.06 | 0.00 | 44 | 1011.6 |
| 20260507173104 | 66 | 200 | 3.0 | 5.0 | 0.00 | 0.06 | 0.00 | 44 | 1011.5 |
| 20260507172604 | 66 | 204 | 3.0 | 6.0 | 0.00 | 0.06 | 0.00 | 44 | 1011.6 |
| 20260507172104 | 66 | 207 | 3.0 | 5.0 | 0.00 | 0.06 | 0.00 | 44 | 1011.6 |
| 20260507171604 | 66 | 206 | 3.0 | 6.0 | 0.00 | 0.06 | 0.00 | 43 | 1011.6 |
| 20260507171104 | 66 | 275 | 1.0 | 3.0 | 0.00 | 0.06 | 0.00 | 39 | 1011.6 |
| 20260507170603 | 66 | 297 | 2.0 | 6.0 | 0.00 | 0.06 | 0.00 | 40 | 1011.6 |
| 20260507165604 | 66 | 344 | 0.0 | 3.0 | 0.00 | 0.06 | 0.00 | 38 | 1011.6 |
| 20260507165104 | 66 | 304 | 2.0 | 3.0 | 0.00 | 0.06 | 0.00 | 38 | 1011.7 |
| 20260507163604 | 66 | 19 | 4.0 | 6.0 | 0.00 | 0.06 | 0.00 | 39 | 1011.8 |
| 20260507163104 | 66 | 307 | 3.0 | 9.0 | 0.00 | 0.07 | 0.00 | 37 | 1011.9 |
| 20260507162603 | 67 | 315 | 5.0 | 12.0 | 0.00 | 0.09 | 0.00 | 42 | 1011.8 |
| 20260507162104 | 67 | 327 | 5.0 | 8.0 | 0.00 | 0.11 | 0.00 | 44 | 1011.7 |
| 20260507161104 | 67 | 328 | 2.0 | 5.0 | 0.00 | 0.15 | 0.00 | 44 | 1011.6 |
| 20260507160104 | 67 | 308 | 3.0 | 10.0 | 0.00 | 0.18 | 0.00 | 44 | 1011.7 |
| 20260507155604 | 67 | 48 | 3.0 | 8.0 | 0.00 | 0.20 | 0.00 | 44 | 1011.7 |
| 20260507155104 | 67 | 222 | 5.0 | 10.0 | 0.00 | 0.21 | 0.00 | 44 | 1011.7 |
| 20260507154604 | 67 | 312 | 4.0 | 7.0 | 0.00 | 0.24 | 0.00 | 45 | 1011.7 |
| 20260507154104 | 67 | 232 | 1.0 | 8.0 | 0.00 | 0.25 | 0.00 | 45 | 1011.8 |
| 20260507153605 | 67 | 192 | 2.0 | 5.0 | 0.00 | 0.25 | 0.00 | 44 | 1011.8 |
| 20260507152604 | 67 | 214 | 3.0 | 6.0 | 0.00 | 0.25 | 0.00 | 44 | 1011.7 |
| 20260507152104 | 67 | 195 | 3.0 | 7.0 | 0.00 | 0.25 | 0.00 | 44 | 1011.7 |
| 20260507151604 | 67 | 209 | 5.0 | 12.0 | 0.00 | 0.25 | 0.00 | 44 | 1011.8 |
| 20260507145604 | 66 | 124 | 6.0 | 12.0 | 0.00 | 0.25 | 0.00 | 44 | 1011.8 |
| 20260507145104 | 66 | 124 | 6.0 | 12.0 | 0.00 | 0.25 | 0.00 | 44 | 1011.8 |
| 20260507144604 | 67 | 134 | 6.0 | 13.0 | 0.00 | 0.25 | 0.00 | 43 | 1011.9 |
| 20260507144104 | 67 | 137 | 6.0 | 10.0 | 0.00 | 0.25 | 0.00 | 43 | 1012.0 |
| 20260507143604 | 67 | 142 | 6.0 | 12.0 | 0.00 | 0.25 | 0.00 | 43 | 1012.0 |
| 20260507143104 | 66 | 153 | 3.0 | 12.0 | 0.00 | 0.25 | 0.00 | 42 | 1012.0 |
| 20260507142604 | 66 | 137 | 7.0 | 14.0 | 0.00 | 0.25 | 0.00 | 42 | 1012.0 |
| 20260507142104 | 66 | 113 | 5.0 | 13.0 | 0.00 | 0.25 | 0.00 | 42 | 1012.1 |
| 20260507141604 | 66 | 146 | 5.0 | 12.0 | 0.00 | 0.25 | 0.00 | 41 | 1012.1 |
| 20260507140603 | 66 | 112 | 7.0 | 13.0 | 0.00 | 0.25 | 0.00 | 39 | 1012.2 |
| 20260507140104 | 66 | 136 | 9.0 | 13.0 | 0.00 | 0.25 | 0.00 | 39 | 1012.3 |
| 20260507135604 | 66 | 102 | 5.0 | 12.0 | 0.00 | 0.25 | 0.00 | 36 | 1012.4 |
| 20260507135104 | 66 | 164 | 5.0 | 12.0 | 0.00 | 0.25 | 0.00 | 38 | 1012.4 |
| 20260507134603 | 66 | 150 | 8.0 | 14.0 | 0.00 | 0.25 | 0.00 | 38 | 1012.6 |
| 20260507133105 | 65 | 93 | 6.0 | 13.0 | 0.00 | 0.25 | 0.00 | 35 | 1012.7 |
| 20260507132604 | 65 | 118 | 5.0 | 10.0 | 0.00 | 0.25 | 0.00 | 34 | 1012.9 |
| 20260507132104 | 64 | 61 | 6.0 | 14.0 | 0.00 | 0.25 | 0.00 | 32 | 1012.9 |
| 20260507131604 | 64 | 87 | 7.0 | 14.0 | 0.00 | 0.25 | 0.00 | 34 | 1012.9 |
| 20260507131104 | 64 | 49 | 5.0 | 12.0 | 0.00 | 0.25 | 0.00 | 35 | 1012.9 |
| 20260507130604 | 64 | 118 | 6.0 | 13.0 | 0.00 | 0.25 | 0.00 | 35 | 1013.0 |
| 20260507130104 | 64 | 88 | 6.0 | 10.0 | 0.00 | 0.25 | 0.00 | 32 | 1013.1 |
| 20260507125604 | 64 | 79 | 7.0 | 12.0 | 0.00 | 0.25 | 0.00 | 31 | 1013.0 |
| 20260507125104 | 64 | 34 | 7.0 | 12.0 | 0.00 | 0.25 | 0.00 | 29 | 1012.9 |
| 20260507124604 | 64 | 38 | 3.0 | 12.0 | 0.00 | 0.25 | 0.00 | 26 | 1013.0 |
| 20260507124104 | 64 | 26 | 2.0 | 8.0 | 0.00 | 0.25 | 0.00 | 25 | 1013.0 |
| 20260507123603 | 64 | 53 | 5.0 | 10.0 | 0.00 | 0.25 | 0.00 | 22 | 1013.0 |
| 20260507123104 | 63 | 55 | 6.0 | 10.0 | 0.00 | 0.25 | 0.00 | 25 | 1013.1 |
| 20260507122604 | 63 | 20 | 8.0 | 13.0 | 0.00 | 0.25 | 0.00 | 29 | 1013.0 |
| 20260507121604 | 64 | 21 | 7.0 | 12.0 | 0.00 | 0.25 | 0.00 | 26 | 1013.0 |
| 20260507121103 | 64 | 74 | 2.0 | 9.0 | 0.00 | 0.25 | 0.00 | 25 | 1013.0 |
| 20260507120604 | 64 | 356 | 3.0 | 10.0 | 0.00 | 0.25 | 0.00 | 22 | 1013.0 |
| 20260507120104 | 64 | 61 | 6.0 | 14.0 | 0.00 | 0.25 | 0.00 | 26 | 1013.0 |
| 20260507115604 | 63 | 0 | 9.0 | 14.0 | 0.00 | 0.25 | 0.00 | 25 | 1012.9 |
| 20260507114604 | 64 | 63 | 10.0 | 14.0 | 0.00 | 0.25 | 0.00 | 32 | 1013.1 |
| 20260507114104 | 65 | 30 | 5.0 | 10.0 | 0.00 | 0.25 | 0.00 | 31 | 1013.1 |
| 20260507113604 | 65 | 32 | 5.0 | 9.0 | 0.00 | 0.25 | 0.00 | 30 | 1013.2 |
| 20260507112604 | 65 | 70 | 6.0 | 12.0 | 0.00 | 0.25 | 0.00 | 23 | 1013.1 |
| 20260507111104 | 65 | 357 | 4.0 | 10.0 | 0.00 | 0.25 | 0.00 | 16 | 1013.2 |
| 20260507110604 | 65 | 346 | 9.0 | 12.0 | 0.00 | 0.25 | 0.00 | 23 | 1013.2 |
| 20260507110105 | 64 | 8 | 4.0 | 10.0 | 0.00 | 0.25 | 0.00 | 14 | 1013.2 |
| 20260507105604 | 64 | 346 | 5.0 | 8.0 | 0.00 | 0.25 | 0.00 | 20 | 1013.3 |
| 20260507104604 | 63 | 35 | 8.0 | 12.0 | 0.00 | 0.25 | 0.00 | 30 | 1013.5 |
| 20260507104104 | 63 | 346 | 5.0 | 8.0 | 0.00 | 0.25 | 0.00 | 23 | 1013.6 |
| 20260507103604 | 62 | 20 | 5.0 | 12.0 | 0.00 | 0.25 | 0.00 | 23 | 1013.6 |
| 20260507102104 | 62 | 41 | 6.0 | 12.0 | 0.00 | 0.25 | 0.00 | 22 | 1013.6 |
| 20260507101603 | 62 | 13 | 9.0 | 12.0 | 0.00 | 0.25 | 0.00 | 20 | 1013.6 |
| 20260507101104 | 62 | 41 | 7.0 | 12.0 | 0.00 | 0.25 | 0.00 | 16 | 1013.7 |
| 20260507100604 | 62 | 39 | 10.0 | 13.0 | 0.00 | 0.25 | 0.00 | 18 | 1013.6 |
| 20260507100104 | 62 | 5 | 7.0 | 10.0 | 0.00 | 0.25 | 0.00 | 15 | 1013.6 |
| 20260507094603 | 62 | 36 | 7.0 | 10.0 | 0.00 | 0.25 | 0.00 | 20 | 1013.7 |
| 20260507094104 | 62 | 24 | 6.0 | 9.0 | 0.00 | 0.25 | 0.00 | 18 | 1013.6 |
| 20260507093603 | 61 | 15 | 5.0 | 12.0 | 0.00 | 0.25 | 0.00 | 12 | 1013.6 |
| 20260507093104 | 61 | 48 | 3.0 | 9.0 | 0.00 | 0.25 | 0.00 | 3 | 1013.7 |
| 20260507092604 | 61 | 40 | 4.0 | 9.0 | 0.00 | 0.25 | 0.00 | 3 | 1013.6 |
| 20260507092104 | 60 | 62 | 7.0 | 12.0 | 0.00 | 0.25 | 0.00 | 3 | 1013.5 |
| 20260507091604 | 60 | 49 | 6.0 | 10.0 | 0.00 | 0.25 | 0.00 | 3 | 1013.6 |
| 20260507091104 | 60 | 30 | 7.0 | 12.0 | 0.00 | 0.25 | 0.00 | 3 | 1013.6 |
| 20260507090604 | 59 | 15 | 4.0 | 8.0 | 0.00 | 0.25 | 0.00 | 3 | 1013.6 |
| 20260507090105 | 59 | 23 | 8.0 | 12.0 | 0.00 | 0.25 | 0.00 | 3 | 1013.6 |
| 20260507085104 | 58 | 28 | 7.0 | 12.0 | 0.00 | 0.25 | 0.00 | 3 | 1013.6 |
| 20260507084605 | 58 | 4 | 8.0 | 14.0 | 0.00 | 0.25 | 0.00 | 3 | 1013.7 |
| 20260507084104 | 59 | 8 | 6.0 | 10.0 | 0.00 | 0.25 | 0.00 | 3 | 1013.8 |
| 20260507083604 | 59 | 347 | 4.0 | 10.0 | 0.00 | 0.25 | 0.00 | 3 | 1013.8 |
| 20260507083104 | 59 | 42 | 6.0 | 12.0 | 0.00 | 0.25 | 0.00 | 3 | 1013.8 |
| 20260507082104 | 60 | 42 | 4.0 | 8.0 | 0.00 | 0.25 | 0.00 | 3 | 1013.8 |
| 20260507081604 | 59 | 54 | 5.0 | 6.0 | 0.00 | 0.25 | 0.00 | 3 | 1013.9 |
| 20260507081104 | 59 | 33 | 4.0 | 7.0 | 0.00 | 0.25 | 0.00 | 3 | 1013.9 |
| 20260507080604 | 59 | 357 | 3.0 | 5.0 | 0.00 | 0.25 | 0.00 | 3 | 1013.9 |
| 20260507075604 | 58 | 71 | 1.0 | 3.0 | 0.00 | 0.25 | 0.00 | 3 | 1013.8 |
| 20260507075104 | 57 | 94 | 1.0 | 6.0 | 0.00 | 0.25 | 0.00 | 3 | 1013.8 |
| 20260507074604 | 57 | 26 | 3.0 | 7.0 | 0.00 | 0.25 | 0.00 | 3 | 1013.7 |
| 20260507074104 | 57 | 41 | 3.0 | 9.0 | 0.00 | 0.25 | 0.00 | 3 | 1013.7 |
| 20260507073604 | 56 | 19 | 2.0 | 6.0 | 0.00 | 0.25 | 0.00 | 3 | 1013.7 |
| 20260507073104 | 56 | 48 | 3.0 | 7.0 | 0.00 | 0.25 | 0.00 | 3 | 1013.7 |
| 20260507072604 | 56 | 46 | 3.0 | 7.0 | 0.00 | 0.25 | 0.00 | 3 | 1013.7 |
| 20260507072103 | 56 | 17 | 2.0 | 3.0 | 0.00 | 0.25 | 0.00 | 3 | 1013.7 |
| 20260507071604 | 56 | 78 | 1.0 | 3.0 | 0.00 | 0.25 | 0.00 | 3 | 1013.7 |
| 20260507071104 | 56 | 105 | 1.0 | 3.0 | 0.00 | 0.25 | 0.00 | 3 | 1013.7 |
| 20260507070604 | 56 | 132 | 1.0 | 2.0 | 0.00 | 0.25 | 0.00 | 3 | 1013.7 |
| 20260507070104 | 56 | 173 | 0.0 | 0.0 | 0.00 | 0.25 | 0.00 | 3 | 1013.6 |
| 20260507065604 | 56 | 173 | 0.0 | 0.0 | 0.00 | 0.25 | 0.00 | 3 | 1013.6 |
| 20260507065103 | 55 | 173 | 1.0 | 3.0 | 0.00 | 0.25 | 0.00 | 3 | 1013.6 |
| 20260507064103 | 55 | 171 | 2.0 | 3.0 | 0.00 | 0.25 | 0.00 | 3 | 1013.6 |
| 20260507063604 | 54 | 148 | 2.0 | 3.0 | 0.00 | 0.25 | 0.00 | 3 | 1013.6 |
| 20260507063104 | 54 | 175 | 2.0 | 3.0 | 0.00 | 0.25 | 0.00 | 3 | 1013.5 |
| 20260507062604 | 53 | 125 | 2.0 | 5.0 | 0.00 | 0.25 | 0.00 | 3 | 1013.5 |
| 20260507061603 | 53 | 164 | 2.0 | 5.0 | 0.00 | 0.25 | 0.00 | 3 | 1013.4 |
| 20260507060605 | 52 | 179 | 3.0 | 3.0 | 0.00 | 0.25 | 0.00 | 3 | 1013.3 |
| 20260507060104 | 52 | 190 | 3.0 | 5.0 | 0.00 | 0.25 | 0.00 | 3 | 1013.3 |
| 20260507055603 | 51 | 178 | 3.0 | 6.0 | 0.00 | 0.25 | 0.00 | 3 | 1013.3 |
| 20260507055105 | 51 | 176 | 4.0 | 6.0 | 0.00 | 0.25 | 0.00 | 3 | 1013.3 |
| 20260507054104 | 51 | 167 | 5.0 | 8.0 | 0.00 | 0.25 | 0.00 | 3 | 1013.3 |
| 20260507053104 | 51 | 171 | 5.0 | 7.0 | 0.00 | 0.25 | 0.00 | 3 | 1013.3 |
| 20260507052604 | 51 | 174 | 5.0 | 7.0 | 0.00 | 0.25 | 0.00 | 3 | 1013.2 |
| 20260507052104 | 51 | 168 | 5.0 | 6.0 | 0.00 | 0.25 | 0.00 | 3 | 1013.2 |
| 20260507051604 | 51 | 174 | 5.0 | 8.0 | 0.00 | 0.25 | 0.00 | 3 | 1013.2 |
| 20260507051105 | 51 | 174 | 5.0 | 7.0 | 0.00 | 0.25 | 0.00 | 3 | 1013.2 |
| 20260507050604 | 51 | 169 | 3.0 | 7.0 | 0.00 | 0.25 | 0.00 | 3 | 1013.2 |
| 20260507050104 | 51 | 157 | 4.0 | 6.0 | 0.00 | 0.25 | 0.00 | 3 | 1013.2 |
| 20260507045604 | 51 | 169 | 5.0 | 6.0 | 0.00 | 0.25 | 0.00 | 3 | 1013.1 |
| 20260507045105 | 51 | 142 | 6.0 | 8.0 | 0.00 | 0.25 | 0.00 | 3 | 1013.1 |
| 20260507043604 | 52 | 191 | 2.0 | 3.0 | 0.00 | 0.25 | 0.00 | 3 | 1013.1 |
| 20260507043104 | 52 | 206 | 3.0 | 6.0 | 0.00 | 0.25 | 0.00 | 3 | 1013.1 |
| 20260507042604 | 52 | 155 | 3.0 | 5.0 | 0.00 | 0.25 | 0.00 | 3 | 1013.0 |
| 20260507041604 | 52 | 170 | 4.0 | 7.0 | 0.00 | 0.25 | 0.00 | 3 | 1013.0 |
| 20260507041103 | 52 | 157 | 3.0 | 6.0 | 0.00 | 0.25 | 0.00 | 3 | 1013.0 |
| 20260507040604 | 53 | 174 | 3.0 | 8.0 | 0.00 | 0.25 | 0.00 | 3 | 1013.0 |
| 20260507040104 | 53 | 167 | 3.0 | 7.0 | 0.00 | 0.25 | 0.00 | 3 | 1013.0 |
| 20260507035604 | 53 | 184 | 3.0 | 6.0 | 0.00 | 0.25 | 0.00 | 3 | 1012.9 |
| 20260507035103 | 53 | 155 | 3.0 | 6.0 | 0.00 | 0.25 | 0.00 | 3 | 1012.9 |
| 20260507034604 | 53 | 168 | 3.0 | 7.0 | 0.00 | 0.25 | 0.00 | 3 | 1012.9 |
| 20260507034104 | 53 | 180 | 4.0 | 6.0 | 0.00 | 0.25 | 0.00 | 3 | 1012.9 |
| 20260507033604 | 53 | 161 | 5.0 | 6.0 | 0.00 | 0.25 | 0.00 | 3 | 1012.8 |
| 20260507033104 | 53 | 174 | 4.0 | 7.0 | 0.00 | 0.25 | 0.00 | 3 | 1012.9 |
| 20260507032103 | 53 | 164 | 5.0 | 7.0 | 0.00 | 0.25 | 0.00 | 3 | 1012.8 |
| 20260507031604 | 53 | 171 | 2.0 | 5.0 | 0.00 | 0.25 | 0.00 | 3 | 1012.9 |
| 20260507030604 | 53 | 154 | 3.0 | 5.0 | 0.00 | 0.25 | 0.00 | 3 | 1012.8 |
| 20260507030104 | 53 | 159 | 3.0 | 7.0 | 0.00 | 0.25 | 0.00 | 3 | 1012.9 |
| 20260507025604 | 53 | 162 | 4.0 | 6.0 | 0.00 | 0.25 | 0.00 | 3 | 1012.9 |
| 20260507025104 | 53 | 189 | 3.0 | 6.0 | 0.00 | 0.25 | 0.00 | 3 | 1012.9 |
| 20260507023604 | 54 | 170 | 3.0 | 7.0 | 0.00 | 0.25 | 0.00 | 3 | 1012.9 |
| 20260507023104 | 54 | 170 | 4.0 | 7.0 | 0.00 | 0.25 | 0.00 | 3 | 1012.9 |
| 20260507022604 | 54 | 154 | 5.0 | 7.0 | 0.00 | 0.25 | 0.00 | 3 | 1012.9 |
| 20260507022103 | 54 | 167 | 4.0 | 6.0 | 0.00 | 0.25 | 0.00 | 3 | 1012.8 |
| 20260507021604 | 54 | 167 | 3.0 | 7.0 | 0.00 | 0.25 | 0.00 | 3 | 1012.8 |
| 20260507021104 | 54 | 173 | 5.0 | 7.0 | 0.00 | 0.25 | 0.00 | 3 | 1012.8 |
| 20260507020604 | 54 | 170 | 3.0 | 7.0 | 0.00 | 0.25 | 0.00 | 3 | 1012.8 |
| 20260507020104 | 54 | 169 | 4.0 | 6.0 | 0.00 | 0.25 | 0.00 | 3 | 1012.8 |
| 20260507015604 | 54 | 184 | 4.0 | 6.0 | 0.00 | 0.25 | 0.00 | 3 | 1012.9 |
| 20260507015104 | 54 | 173 | 5.0 | 7.0 | 0.00 | 0.25 | 0.00 | 3 | 1012.9 |
| 20260507014604 | 54 | 157 | 3.0 | 6.0 | 0.00 | 0.25 | 0.00 | 3 | 1013.0 |
| 20260507014104 | 54 | 189 | 3.0 | 3.0 | 0.00 | 0.25 | 0.00 | 3 | 1013.0 |
| 20260507013604 | 54 | 172 | 3.0 | 6.0 | 0.00 | 0.25 | 0.00 | 3 | 1013.1 |
| 20260507013104 | 54 | 175 | 5.0 | 7.0 | 0.00 | 0.25 | 0.00 | 3 | 1013.2 |
| 20260507012104 | 54 | 164 | 3.0 | 7.0 | 0.00 | 0.25 | 0.00 | 3 | 1013.2 |
| 20260507011604 | 54 | 187 | 3.0 | 5.0 | 0.00 | 0.25 | 0.00 | 3 | 1013.2 |
| 20260507011104 | 54 | 176 | 2.0 | 5.0 | 0.00 | 0.25 | 0.00 | 3 | 1013.2 |
| 20260507010103 | 54 | 153 | 2.0 | 6.0 | 0.00 | 0.25 | 0.00 | 3 | 1013.3 |
| 20260507005104 | 54 | 148 | 3.0 | 5.0 | 0.00 | 0.25 | 0.00 | 3 | 1013.4 |
| 20260507003604 | 55 | 170 | 2.0 | 5.0 | 0.00 | 0.25 | 0.00 | 3 | 1013.5 |
| 20260507002604 | 55 | 190 | 2.0 | 3.0 | 0.00 | 0.25 | 0.00 | 3 | 1013.5 |
| 20260507002124 | 55 | 169 | 1.0 | 5.0 | 0.00 | 0.25 | 0.00 | 3 | 1013.5 |
| 20260507001104 | 55 | 175 | 2.0 | 3.0 | 0.00 | 0.25 | 0.00 | 3 | 1013.6 |
| 20260507000604 | 55 | 198 | 2.0 | 3.0 | 0.00 | 0.25 | 0.00 | 3 | 1013.6 |
| 20260506235604 | 55 | 171 | 4.0 | 6.0 | 0.00 | 0.25 | 0.00 | 3 | 1013.6 |
| 20260506235104 | 55 | 198 | 3.0 | 5.0 | 0.00 | 0.25 | 0.00 | 3 | 1013.6 |
| 20260506234604 | 55 | 176 | 3.0 | 7.0 | 0.00 | 0.25 | 0.00 | 3 | 1013.5 |
| 20260506234104 | 55 | 154 | 3.0 | 7.0 | 0.00 | 0.25 | 0.00 | 3 | 1013.6 |
| 20260506233604 | 55 | 167 | 4.0 | 6.0 | 0.00 | 0.25 | 0.00 | 3 | 1013.6 |
| 20260506233104 | 55 | 166 | 3.0 | 6.0 | 0.00 | 0.25 | 0.00 | 3 | 1013.6 |
| 20260506232604 | 55 | 179 | 2.0 | 5.0 | 0.00 | 0.25 | 0.00 | 3 | 1013.5 |
| 20260506232104 | 55 | 171 | 3.0 | 6.0 | 0.00 | 0.25 | 0.00 | 3 | 1013.6 |
| 20260506231604 | 55 | 176 | 3.0 | 6.0 | 0.00 | 0.25 | 0.00 | 3 | 1013.6 |
| 20260506231104 | 55 | 164 | 2.0 | 3.0 | 0.00 | 0.25 | 0.00 | 3 | 1013.6 |
| 20260506230604 | 55 | 171 | 2.0 | 5.0 | 0.00 | 0.25 | 0.00 | 3 | 1013.7 |
| 20260506230104 | 55 | 177 | 2.0 | 5.0 | 0.00 | 0.25 | 0.00 | 3 | 1013.7 |
| 20260506225604 | 55 | 167 | 3.0 | 5.0 | 0.00 | 0.25 | 0.00 | 3 | 1013.7 |
| 20260506225104 | 55 | 174 | 3.0 | 6.0 | 0.00 | 0.25 | 0.00 | 3 | 1013.8 |
| 20260506224604 | 55 | 184 | 2.0 | 5.0 | 0.00 | 0.25 | 0.00 | 3 | 1013.8 |
| 20260506224104 | 55 | 169 | 2.0 | 5.0 | 0.00 | 0.25 | 0.00 | 3 | 1013.7 |
| 20260506223104 | 55 | 179 | 3.0 | 6.0 | 0.00 | 0.25 | 0.00 | 3 | 1013.7 |
| 20260506222604 | 55 | 188 | 3.0 | 5.0 | 0.00 | 0.25 | 0.00 | 3 | 1013.7 |
| 20260506222104 | 56 | 182 | 3.0 | 6.0 | 0.00 | 0.25 | 0.00 | 3 | 1013.8 |
| 20260506221604 | 56 | 169 | 3.0 | 6.0 | 0.00 | 0.25 | 0.00 | 3 | 1013.7 |
| 20260506221104 | 56 | 182 | 3.0 | 5.0 | 0.00 | 0.25 | 0.00 | 3 | 1013.6 |
| 20260506220604 | 56 | 174 | 3.0 | 6.0 | 0.00 | 0.25 | 0.00 | 3 | 1013.6 |
| 20260506220103 | 56 | 171 | 3.0 | 5.0 | 0.00 | 0.25 | 0.00 | 3 | 1013.7 |
| 20260506215104 | 56 | 172 | 4.0 | 6.0 | 0.00 | 0.25 | 0.25 | 3 | 1013.7 |
| 20260506214604 | 56 | 174 | 2.0 | 5.0 | 0.00 | 0.25 | 0.25 | 3 | 1013.7 |
| 20260506214103 | 56 | 188 | 3.0 | 5.0 | 0.00 | 0.25 | 0.25 | 3 | 1013.7 |
| 20260506213603 | 56 | 173 | 3.0 | 5.0 | 0.00 | 0.25 | 0.25 | 3 | 1013.7 |
| 20260506212104 | 56 | 157 | 2.0 | 6.0 | 0.02 | 0.25 | 0.25 | 3 | 1013.7 |
| 20260506211604 | 56 | 168 | 3.0 | 6.0 | 0.03 | 0.25 | 0.25 | 3 | 1013.7 |
| 20260506211104 | 56 | 173 | 2.0 | 5.0 | 0.03 | 0.25 | 0.25 | 3 | 1013.7 |
| 20260506210604 | 56 | 174 | 3.0 | 6.0 | 0.04 | 0.25 | 0.25 | 3 | 1013.7 |
| 20260506210104 | 56 | 149 | 2.0 | 5.0 | 0.04 | 0.25 | 0.25 | 3 | 1013.7 |
| 20260506205104 | 57 | 168 | 2.0 | 5.0 | 0.04 | 0.25 | 0.25 | 3 | 1013.8 |
| 20260506204604 | 57 | 184 | 3.0 | 5.0 | 0.04 | 0.25 | 0.25 | 3 | 1013.8 |
| 20260506204104 | 57 | 177 | 2.0 | 5.0 | 0.04 | 0.25 | 0.25 | 3 | 1013.7 |
| 20260506203104 | 57 | 189 | 2.0 | 5.0 | 0.04 | 0.25 | 0.25 | 3 | 1013.7 |
| 20260506202104 | 57 | 33 | 2.0 | 5.0 | 0.02 | 0.24 | 0.24 | 3 | 1013.6 |
| 20260506201104 | 57 | 9 | 0.0 | 3.0 | 0.01 | 0.22 | 0.22 | 3 | 1013.6 |
| 20260506200604 | 57 | 346 | 2.0 | 5.0 | 0.00 | 0.21 | 0.21 | 3 | 1013.6 |
| 20260506200104 | 57 | 340 | 2.0 | 6.0 | 0.00 | 0.22 | 0.21 | 3 | 1013.6 |
| 20260506195604 | 57 | 351 | 4.0 | 8.0 | 0.00 | 0.22 | 0.21 | 3 | 1013.6 |
| 20260506195104 | 58 | 307 | 3.0 | 6.0 | 0.00 | 0.27 | 0.21 | 3 | 1013.5 |
| 20260506194604 | 58 | 349 | 5.0 | 10.0 | 0.00 | 0.33 | 0.21 | 3 | 1013.4 |
| 20260506194104 | 58 | 1 | 7.0 | 12.0 | 0.00 | 0.36 | 0.21 | 3 | 1013.3 |
| 20260506193605 | 58 | 2 | 5.0 | 12.0 | 0.00 | 0.39 | 0.21 | 3 | 1013.3 |
| 20260506192604 | 58 | 45 | 2.0 | 5.0 | 0.00 | 0.39 | 0.21 | 3 | 1013.0 |
| 20260506192104 | 57 | 35 | 5.0 | 6.0 | 0.00 | 0.39 | 0.21 | 3 | 1012.8 |
| 20260506191603 | 57 | 49 | 2.0 | 3.0 | 0.00 | 0.39 | 0.21 | 3 | 1012.7 |
| 20260506191104 | 57 | 87 | 2.0 | 3.0 | 0.00 | 0.40 | 0.21 | 3 | 1012.6 |
| 20260506190605 | 57 | 41 | 2.0 | 3.0 | 0.00 | 0.41 | 0.21 | 3 | 1012.5 |
| 20260506190104 | 57 | 10 | 2.0 | 9.0 | 0.00 | 0.41 | 0.21 | 3 | 1012.4 |
| 20260506185604 | 57 | 36 | 3.0 | 3.0 | 0.01 | 0.42 | 0.21 | 3 | 1012.4 |
| 20260506185105 | 57 | 223 | 0.0 | 3.0 | 0.02 | 0.42 | 0.21 | 3 | 1012.2 |
| 20260506184604 | 57 | 226 | 2.0 | 5.0 | 0.02 | 0.43 | 0.21 | 3 | 1012.1 |
| 20260506184104 | 57 | 169 | 3.0 | 6.0 | 0.02 | 0.43 | 0.21 | 3 | 1012.1 |
| 20260506183604 | 56 | 175 | 3.0 | 7.0 | 0.02 | 0.43 | 0.21 | 3 | 1012.0 |
| 20260506183104 | 56 | 179 | 3.0 | 6.0 | 0.02 | 0.43 | 0.21 | 3 | 1011.9 |
| 20260506182604 | 56 | 212 | 2.0 | 5.0 | 0.02 | 0.43 | 0.21 | 3 | 1011.9 |
| 20260506182104 | 56 | 208 | 3.0 | 6.0 | 0.02 | 0.43 | 0.21 | 3 | 1011.8 |